Regional Weather Roundup
Issued by NWS State College, PA

Home | Current Version | Previous Version | Graphics & Text | Print | Product List | Glossary On
Versions: 1 2 3 4 5 6 7 8 9 10 11 12 13 14 15 16 17 18 19 20 21 22 23 24 25 26 27 28 29 30 31 32 33 34 35 36 37 38 39 40 41 42 43 44 45 46 47 48 49 50
000
ASUS41 KCTP 201910
RWRCTP

REGIONAL WEATHER ROUNDUP
NATIONAL WEATHER SERVICE STATE COLLEGE PA
300 PM EDT MON APR 20 2015

Note: "fair" indicates few or no clouds below 12,000 feet with no
significant weather and/or obstructions to visibility.

* = STATION THAT DOES NOT REPORT PRECIPITATION /E.G. RAIN...SNOW...ETC/
    THUNDER OR FOG.

PAZ002>004-007>009-013>016-020>023-029>032-202000-
WESTERN PENNSYLVANIA

CITY           SKY/WX    TMP DP  RH WIND       PRES   REMARKS
ERIE           PTSUNNY   61  52  72 W17G28    29.39R
MEADVILLE      PTSUNNY   66  54  65 S12G20    29.41F
FRANKLIN*      CLOUDY    59  54  82 SW12G29   29.46S
NEW CASTLE     FAIR      70  57  63 SW14G26   29.45F
BEAVER COUNTY  PTSUNNY   70  50  49 S18G33    29.45F
BUTLER*        PTSUNNY   64  57  77 W13G18    29.48S
PITTSBURGH INT MOSUNNY   70  53  54 SW17G26   29.46S
PITTSBURGH     MOSUNNY   73  43  33 SW25G38   29.46F
INDIANA*       PTSUNNY   73  52  46 SW23G30   29.51F
LATROBE        PTSUNNY   75  50  41 SW23G32   29.50F
WASHINGTON CO* PTSUNNY   73  48  40 SW12G29   29.50S
$$

PAZ004>006-010>012-017>019-024>028-033>037-041-042-045-046-049>053-202000-
CENTRAL PENNSYLVANIA

CITY           SKY/WX    TMP DP  RH WIND       PRES   REMARKS
BRADFORD       CLOUDY    64  53  67 SE15G23   29.48F
DUBOIS         CLOUDY    66  54  65 SE16G25   29.48F
CLEARFIELD     CLOUDY    61  51  70 VRB3      29.54S
JOHNSTOWN      CLOUDY    65  52  62 S18G25    29.52F
ALTOONA        CLOUDY    64  54  69 S10       29.57F
STATE COLLEGE  CLOUDY    63  54  72 S6        29.56F
WILLIAMSPORT   PTSUNNY   66  54  65 VRB5      29.58F
SELINSGROVE    PTSUNNY   66  57  72 S6        29.59F
FT INDIANTOWN  PTSUNNY   63  57  82 NE8       29.60F
CAPITAL CITY   PTSUNNY   68  58  70 E12       29.57F
HARRISBURG     PTSUNNY   71  59  65 E8        29.57F
YORK           PTSUNNY   74  56  53 S7        29.56F
$$

PAZ038>040-043-044-047-048-054-055-060>062-067>071-202000-
EASTERN PENNSYLVANIA

CITY           SKY/WX    TMP DP  RH WIND       PRES   REMARKS
SCRANTON       CLOUDY    62  52  69 E9        29.63F
MOUNT POCONO   FOG       52  51  97 E9        29.66F VSB 1/2
ALLENTOWN      CLOUDY    60  57  89 E7        29.65F
QUAKERTOWN*    CLOUDY    61  59  94 NE6       29.65F
READING        PTSUNNY   64  57  78 CALM      29.62F
LANCASTER      MOSUNNY   69  62  78 E7        29.59F
COATESVILLE    PTCLDY    68  63  83 E6        29.62F
POTTSTOWN      CLOUDY    64  60  87 NE7       29.64F
BLUE BELL      SUNNY     70  63  78 CALM      29.62F
DOYLESTOWN     CLOUDY    65  61  87 N6        29.63F
WILLOW GROVE   NOT AVBL
NORTH PHILA    PTSUNNY   72  61  68 NE3       29.64F
PHILADELPHIA   MOSUNNY   72  62  71 S5        29.61F
$$



USA.gov is the U.S. government's official web portal to all federal, state and local government web resources and services.